Location: Mexico
(19.4000°N, 99.1500°W)
Time: 22:01:54
(UTC-06:00)

ISS - Pass Details

Date: 22 March 2018
Orbit: 402 x 408 km, 51.6° (Epoch: 19 July)

Event Time Altitude Azimuth Distance (km) Brightness Sun altitude
Rises 20:19:47 0° 251° (WSW) 2,333 1.1 -22.3°
Reaches altitude 10° 20:22:27 10° 274° (W) 1,477 0.1 -22.9°
Maximum altitude 20:24:34 16° 314° (NW) 1,178 -0.8 -23.4°
Drops below altitude 10° 20:26:41 10° 354° (N) 1,482 -0.8 -23.9°
Enters shadow 20:26:44 10° 354° (N) 1,492 -0.8 -23.9°
